FW3611 Weather Reports


Display with metric or nautical units.
time (UTC)temp
F
wind
direction
speed
MPH
gust
MPH
rain 1hr
in
rain 24hr
in
rain mn
in
humidity
%
barometer
mb
20260505230357 83 182 2.0 6.0 0.00 0.00 0.00 41 1014.5
20260505225358 85 177 2.0 5.0 0.00 0.00 0.00 39 1014.6
20260505224855 85 176 2.0 6.0 0.00 0.00 0.00 40 1014.5
20260505223855 85 103 2.0 6.0 0.00 0.00 0.00 39 1014.5
20260505223353 85 157 2.0 6.0 0.00 0.00 0.00 38 1014.6
20260505222854 85 130 2.0 5.0 0.00 0.00 0.00 38 1014.5
20260505221848 85 183 3.0 7.0 0.00 0.00 0.00 38 1014.5
20260505221341 85 171 4.0 8.0 0.00 0.00 0.00 39 1014.4
20260505220335 85 197 5.0 11.0 0.00 0.00 0.00 38 1014.2
20260505215835 85 114 5.0 11.0 0.00 0.00 0.00 37 1014.3
20260505214834 85 173 4.0 10.0 0.00 0.00 0.00 39 1014.5
20260505214331 85 135 5.0 11.0 0.00 0.00 0.00 39 1014.4
20260505213829 85 163 5.0 11.0 0.00 0.00 0.00 37 1014.5
20260505213329 85 160 3.0 8.0 0.00 0.00 0.00 40 1014.4
20260505212329 85 21 3.0 7.0 0.00 0.00 0.00 37 1014.5
20260505211836 85 178 2.0 7.0 0.00 0.00 0.00 37 1014.5
20260505211334 85 237 4.0 10.0 0.00 0.00 0.00 37 1014.5
20260505210827 85 185 4.0 10.0 0.00 0.00 0.00 36 1014.5
20260505210325 85 173 3.0 10.0 0.00 0.00 0.00 39 1014.6
20260505205825 85 114 4.0 13.0 0.00 0.00 0.00 39 1014.7
20260505204826 85 142 3.0 16.0 0.00 0.00 0.00 38 1014.7
20260505204326 84 230 3.0 9.0 0.00 0.00 0.00 37 1014.7
20260505203825 86 164 3.0 7.0 0.00 0.00 0.00 35 1014.9
20260505203326 85 105 3.0 8.0 0.00 0.00 0.00 39 1014.9
20260505202325 85 112 4.0 14.0 0.00 0.00 0.00 38 1014.9
20260505201325 84 116 2.0 6.0 0.00 0.00 0.00 40 1015.0
20260505200824 84 61 2.0 6.0 0.00 0.00 0.00 40 1015.1
20260505200325 84 58 1.0 5.0 0.00 0.00 0.00 38 1015.1
20260505195825 83 141 3.0 10.0 0.00 0.00 0.00 40 1015.3
20260505195327 83 144 3.0 12.0 0.00 0.00 0.00 40 1015.3
20260505194817 83 171 4.0 12.0 0.00 0.00 0.00 39 1015.4
20260505194317 84 174 5.0 13.0 0.00 0.00 0.00 38 1015.6
20260505193818 84 126 4.0 13.0 0.00 0.00 0.00 38 1015.7
20260505193317 84 148 3.0 9.0 0.00 0.00 0.00 40 1015.8
20260505192819 83 198 3.0 9.0 0.00 0.00 0.00 41 1016.0
20260505191816 82 176 2.0 6.0 0.00 0.00 0.00 41 1016.2
20260505191317 83 172 3.0 9.0 0.00 0.00 0.00 39 1016.2
20260505190813 84 110 3.0 9.0 0.00 0.00 0.00 42 1016.3
20260505190312 84 164 2.0 8.0 0.00 0.00 0.00 42 1016.4
20260505185815 83 87 2.0 4.0 0.00 0.00 0.00 41 1016.3
20260505184313 82 224 4.0 9.0 0.00 0.00 0.00 39 1016.3
20260505183814 82 225 5.0 10.0 0.00 0.00 0.00 42 1016.4
20260505183312 82 181 5.0 10.0 0.00 0.00 0.00 41 1016.5
20260505182809 82 189 3.0 10.0 0.00 0.00 0.00 42 1016.4
20260505182307 83 83 2.0 10.0 0.00 0.00 0.00 44 1016.5
20260505181806 82 133 2.0 7.0 0.00 0.00 0.00 43 1016.7
20260505181305 82 130 3.0 9.0 0.00 0.00 0.00 41 1016.7
20260505180804 82 193 3.0 9.0 0.00 0.00 0.00 41 1016.7
20260505180305 81 150 2.0 7.0 0.00 0.00 0.00 43 1016.8
20260505175818 81 110 3.0 6.0 0.00 0.00 0.00 46 1016.9
20260505174752 82 151 2.0 9.0 0.00 0.00 0.00 43 1016.9
20260505174252 83 218 2.0 7.0 0.00 0.00 0.00 42 1016.9
20260505172750 82 164 5.0 13.0 0.00 0.00 0.00 44 1017.0
20260505172252 81 216 5.0 14.0 0.00 0.00 0.00 43 1017.0
20260505171240 82 73 3.0 10.0 0.00 0.00 0.00 46 1017.0
20260505170803 82 85 3.0 10.0 0.00 0.00 0.00 46 1016.9
20260505170240 82 191 3.0 7.0 0.00 0.00 0.00 47 1017.0
20260505165241 81 117 4.0 10.0 0.00 0.00 0.00 48 1017.2
20260505164738 81 144 4.0 8.0 0.00 0.00 0.00 47 1017.3
20260505164233 80 110 3.0 8.0 0.00 0.00 0.00 53 1017.3
20260505163732 79 165 3.0 11.0 0.00 0.00 0.00 50 1017.5
20260505162732 79 165 3.0 9.0 0.00 0.00 0.00 49 1017.4
20260505162230 79 166 2.0 9.0 0.00 0.00 0.00 54 1017.5
20260505161731 78 162 3.0 10.0 0.00 0.00 0.00 58 1017.6
20260505161231 78 169 6.0 10.0 0.00 0.00 0.00 55 1017.6
20260505160730 79 200 6.0 12.0 0.00 0.00 0.00 55 1017.6
20260505160232 78 168 5.0 12.0 0.00 0.00 0.00 55 1017.6
20260505153235 77 188 4.0 10.0 0.00 0.00 0.00 57 1017.9
20260505152235 77 154 5.0 10.0 0.00 0.00 0.00 60 1018.0
20260505151733 77 185 4.0 8.0 0.00 0.00 0.00 58 1018.0
20260505151229 77 175 5.0 10.0 0.00 0.00 0.00 61 1017.9
20260505150230 76 191 4.0 9.0 0.00 0.00 0.00 61 1017.9
20260505140214 74 167 3.0 9.0 0.00 0.00 0.00 64 1017.8
20260505130217 67 174 3.0 7.0 0.00 0.00 0.00 76 1017.7
20260505124705 66 125 2.0 4.0 0.00 0.00 0.00 80 1017.7
20260505124211 65 158 2.0 4.0 0.00 0.00 0.00 82 1017.6
20260505123707 64 158 1.0 4.0 0.00 0.00 0.00 85 1017.5
20260505123207 63 131 1.0 3.0 0.00 0.00 0.00 89 1017.4
20260505122705 62 125 0.0 2.0 0.00 0.00 0.00 91 1017.4
20260505122214 61 125 0.0 0.0 0.00 0.00 0.00 92 1017.4
20260505121707 60 125 0.0 0.0 0.00 0.00 0.00 94 1017.4
20260505121207 59 125 0.0 0.0 0.00 0.00 0.00 94 1017.4
20260505120707 59 125 0.0 0.0 0.00 0.00 0.00 94 1017.4
20260505120205 58 125 0.0 1.0 0.00 0.00 0.00 94 1017.3
20260505115205 57 125 0.0 0.0 0.00 0.00 0.00 94 1017.1
20260505114705 57 125 0.0 0.0 0.00 0.00 0.00 94 1017.1
20260505114210 57 125 0.0 0.0 0.00 0.00 0.00 94 1017.2
20260505113711 56 125 0.0 0.0 0.00 0.00 0.00 94 1017.1
20260505113216 56 125 0.0 0.0 0.00 0.00 0.00 94 1017.0
20260505112708 55 125 0.0 0.0 0.00 0.00 0.00 94 1017.0
20260505111705 55 125 0.0 0.0 0.00 0.00 0.00 94 1017.0
20260505110701 54 125 0.0 0.0 0.00 0.00 0.00 94 1016.9
20260505110203 54 125 0.0 0.0 0.00 0.00 0.00 93 1016.8
20260505102153 54 125 0.0 0.0 0.00 0.00 0.00 93 1016.5
20260505101657 54 125 0.0 0.0 0.00 0.00 0.00 92 1016.5
20260505101153 54 125 0.0 0.0 0.00 0.00 0.00 92 1016.5
20260505100154 54 125 0.0 0.0 0.00 0.00 0.00 92 1016.6
20260505095158 54 125 0.0 0.0 0.00 0.00 0.00 92 1016.8
20260505094658 54 125 0.0 0.0 0.00 0.00 0.00 92 1016.7
20260505094154 54 125 0.0 0.0 0.00 0.00 0.00 92 1016.7
20260505093654 54 125 0.0 0.0 0.00 0.00 0.00 92 1016.6
20260505093154 54 125 0.0 0.0 0.00 0.00 0.00 92 1016.4
20260505092654 54 125 0.0 0.0 0.00 0.00 0.00 92 1016.4
20260505092153 54 125 0.0 1.0 0.00 0.00 0.00 91 1016.4
20260505091655 55 125 0.0 1.0 0.00 0.00 0.00 92 1016.3
20260505091156 55 125 0.0 1.0 0.00 0.00 0.00 91 1016.3
20260505085659 55 125 0.0 0.0 0.00 0.00 0.00 91 1016.2
20260505085158 55 125 0.0 0.0 0.00 0.00 0.00 91 1016.1
20260505084659 55 125 0.0 0.0 0.00 0.00 0.00 91 1016.2
20260505084158 55 125 0.0 0.0 0.00 0.00 0.00 91 1016.3
20260505083657 55 125 0.0 0.0 0.00 0.00 0.00 91 1016.2
20260505083159 55 125 0.0 0.0 0.00 0.00 0.00 90 1016.2
20260505082656 56 125 0.0 0.0 0.00 0.00 0.00 90 1016.2
20260505082154 56 125 0.0 0.0 0.00 0.00 0.00 90 1016.1
20260505081656 56 125 0.0 0.0 0.00 0.00 0.00 90 1016.2
20260505081154 56 125 0.0 0.0 0.00 0.00 0.00 90 1016.1
20260505080653 56 125 0.0 0.0 0.00 0.00 0.00 90 1016.1
20260505080150 56 125 0.0 0.0 0.00 0.00 0.00 89 1016.1
20260505075151 57 125 0.0 0.0 0.00 0.00 0.00 89 1016.0
20260505074648 57 125 0.0 0.0 0.00 0.00 0.00 89 1016.0
20260505074150 57 125 0.0 0.0 0.00 0.00 0.00 89 1015.9
20260505073152 57 125 0.0 0.0 0.00 0.00 0.00 89 1016.0
20260505072649 57 125 0.0 0.0 0.00 0.00 0.00 89 1016.0
20260505072144 57 125 0.0 0.0 0.00 0.00 0.00 88 1016.0
20260505071637 58 125 0.0 0.0 0.00 0.00 0.00 88 1016.0
20260505071140 58 125 0.0 0.0 0.00 0.00 0.00 88 1016.1
20260505070633 58 125 0.0 0.0 0.00 0.00 0.00 88 1016.1
20260505070129 58 125 0.0 2.0 0.00 0.00 0.00 87 1016.1
20260505065629 58 125 0.0 2.0 0.00 0.00 0.00 87 1016.1
20260505065132 58 125 0.0 2.0 0.00 0.00 0.00 87 1016.1
20260505064634 58 125 0.0 0.0 0.00 0.00 0.00 87 1016.2
20260505064139 59 125 0.0 1.0 0.00 0.00 0.00 87 1016.2
20260505063647 59 125 0.0 1.0 0.00 0.00 0.00 87 1016.2
20260505063130 59 125 0.0 0.0 0.00 0.00 0.00 86 1016.3
20260505062631 59 125 0.0 1.0 0.00 0.00 0.00 86 1016.4
20260505062129 59 125 0.0 1.0 0.00 0.00 0.00 86 1016.5
20260505061632 59 125 0.0 0.0 0.00 0.00 0.00 85 1016.6
20260505061129 59 125 0.0 0.0 0.00 0.00 0.00 85 1016.6
20260505060630 59 125 0.0 0.0 0.00 0.00 0.00 85 1016.6
20260505060129 59 125 0.0 1.0 0.00 0.00 0.00 84 1016.6
20260505055630 59 125 0.0 1.0 0.00 0.00 0.00 84 1016.7
20260505054637 60 125 0.0 1.0 0.00 0.00 0.00 83 1016.8
20260505054134 60 125 0.0 1.0 0.00 0.00 0.00 83 1016.9
20260505053629 60 125 0.0 0.0 0.00 0.00 0.00 82 1017.0
20260505053130 60 125 0.0 0.0 0.00 0.00 0.00 82 1017.1
20260505052627 60 125 0.0 0.0 0.00 0.00 0.00 82 1017.1
20260505052125 61 125 0.0 0.0 0.00 0.00 0.00 81 1017.1
20260505051618 61 125 0.0 1.0 0.00 0.00 0.00 80 1017.2
20260505051114 61 125 0.0 1.0 0.00 0.00 0.00 80 1017.2
20260505050607 61 125 0.0 1.0 0.00 0.00 0.00 80 1017.3
20260505050110 62 125 0.0 1.0 0.00 0.00 0.00 79 1017.3
20260505041554 63 125 0.0 1.0 0.00 0.00 0.00 76 1017.4
20260505040552 64 125 0.0 2.0 0.00 0.00 0.00 75 1017.4
20260505040051 64 125 0.0 2.0 0.00 0.00 0.00 74 1017.4
20260505035548 64 125 0.0 2.0 0.00 0.00 0.00 73 1017.4
20260505034547 64 125 0.0 2.0 0.00 0.00 0.00 73 1017.5
20260505034050 64 125 0.0 2.0 0.00 0.00 0.00 72 1017.5
20260505033546 65 125 0.0 2.0 0.00 0.00 0.00 72 1017.5
20260505033047 65 125 0.0 2.0 0.00 0.00 0.00 71 1017.4
20260505032546 65 125 0.0 2.0 0.00 0.00 0.00 70 1017.4
20260505032047 65 125 0.0 3.0 0.00 0.00 0.00 70 1017.3
20260505031547 65 125 1.0 4.0 0.00 0.00 0.00 70 1017.4
20260505031045 66 108 1.0 4.0 0.00 0.00 0.00 69 1017.3
20260505030043 66 129 1.0 5.0 0.00 0.00 0.00 68 1017.3
20260505025534 66 114 1.0 4.0 0.00 0.00 0.00 68 1017.3
20260505025057 67 117 1.0 6.0 0.00 0.00 0.00 68 1017.2
20260505024044 67 142 1.0 5.0 0.00 0.00 0.00 67 1017.1
20260505023540 67 156 1.0 5.0 0.00 0.00 0.00 67 1017.1
20260505023039 67 108 1.0 4.0 0.00 0.00 0.00 67 1017.0
20260505021529 67 138 1.0 6.0 0.00 0.00 0.00 65 1017.0
20260505021040 68 157 1.0 4.0 0.00 0.00 0.00 65 1016.8
20260505020527 68 157 1.0 5.0 0.00 0.00 0.00 64 1016.9
20260505020026 68 131 1.0 5.0 0.00 0.00 0.00 63 1016.7
20260505015528 68 138 1.0 3.0 0.00 0.00 0.00 63 1016.7
20260505014522 69 150 2.0 7.0 0.00 0.00 0.00 61 1016.7
20260505014022 69 156 1.0 4.0 0.00 0.00 0.00 61 1016.5
20260505013522 69 177 1.0 4.0 0.00 0.00 0.00 60 1016.4
20260505013017 69 209 1.0 3.0 0.00 0.00 0.00 60 1016.3
20260505012511 69 193 1.0 4.0 0.00 0.00 0.00 59 1016.4
20260505012007 70 166 1.0 4.0 0.00 0.00 0.00 57 1016.4
20260505011507 70 166 1.0 5.0 0.00 0.00 0.00 56 1016.4
20260505011003 70 167 2.0 7.0 0.00 0.00 0.00 56 1016.2
20260505010505 71 143 1.0 7.0 0.00 0.00 0.00 54 1016.2
20260505005501 71 131 1.0 4.0 0.00 0.00 0.00 53 1016.1
20260505005000 71 84 1.0 4.0 0.00 0.00 0.00 52 1016.0
20260505004505 71 156 1.0 8.0 0.00 0.00 0.00 51 1016.1
20260505004005 72 104 1.0 8.0 0.00 0.00 0.00 49 1016.0
20260505003503 72 131 1.0 5.0 0.00 0.00 0.00 48 1016.0
20260505003014 73 134 1.0 5.0 0.00 0.00 0.00 47 1016.0
20260505002453 73 123 1.0 5.0 0.00 0.00 0.00 46 1015.9
20260505001955 73 112 2.0 7.0 0.00 0.00 0.00 45 1015.9
20260505001454 74 177 2.0 7.0 0.00 0.00 0.00 45 1015.9
20260505000953 74 47 1.0 6.0 0.00 0.00 0.00 44 1015.8
20260504235946 75 142 2.0 7.0 0.00 0.00 0.00 44 1015.8
20260504235444 75 164 3.0 7.0 0.00 0.00 0.00 43 1015.8
20260504234945 75 187 2.0 7.0 0.00 0.00 0.00 43 1015.7
20260504234443 76 155 3.0 9.0 0.00 0.00 0.00 42 1015.7
20260504233945 76 92 2.0 9.0 0.00 0.00 0.00 42 1015.6
20260504232943 78 131 2.0 7.0 0.00 0.00 0.00 41 1015.6
20260504232442 78 152 2.0 7.0 0.00 0.00 0.00 41 1015.5
20260504231942 78 157 2.0 7.0 0.00 0.00 0.00 40 1015.4
20260504230937 79 112 4.0 14.0 0.00 0.00 0.00 39 1015.3